Estación de Nueva Imperial

Ultimos registro cada 15 minutos 49
Estación Fecha / Hora Temperatura Humedad Lluvia Velocidad Dirección Radiación Presion
49 Nueva Imperial 10-05-2026 12:00 19,2 58,1 0 0,3 261 501,9 1012,7
48 Nueva Imperial 10-05-2026 11:45 18,3 60,6 0 0,3 243 491,9 1012,8
47 Nueva Imperial 10-05-2026 11:30 18,2 59,3 0 0,3 278 479,4 1012,9
46 Nueva Imperial 10-05-2026 11:15 18 61,8 0,2 0,3 321 464,4 1013
45 Nueva Imperial 10-05-2026 11:00 17 60,8 0 0,3 37 444,4 1013,2
44 Nueva Imperial 10-05-2026 10:45 16,5 60,4 0 0,3 56 419,4 1013,4
43 Nueva Imperial 10-05-2026 10:30 15,6 66,9 0 0 264 381,9 1013,6
42 Nueva Imperial 10-05-2026 10:15 13,2 70,9 0 0 226 355,6 1013,7
41 Nueva Imperial 10-05-2026 10:00 11,6 73,5 0 0 223 180,6 1013,7
40 Nueva Imperial 10-05-2026 09:45 10,4 76,7 0 0 267 161,9 1013,7
39 Nueva Imperial 10-05-2026 09:30 10,1 79,1 0 0,3 272 141,9 1013,8
38 Nueva Imperial 10-05-2026 09:15 9 84 0 0,3 295 219,4 1013,8
37 Nueva Imperial 10-05-2026 09:00 7,7 89,4 0 0,3 285 190,6 1013,8
36 Nueva Imperial 10-05-2026 08:45 5,9 90,5 0 0 285 154,4 1013,5
35 Nueva Imperial 10-05-2026 08:30 4,6 92,2 0 0 285 123,1 1013,5
34 Nueva Imperial 10-05-2026 08:15 3,5 94,2 0 0,3 285 88,1 1013,4
33 Nueva Imperial 10-05-2026 08:00 2,7 94,9 0 0,3 284 40,6 1013,4
32 Nueva Imperial 10-05-2026 07:45 2,6 95,5 0 0 288 4,4 1013,2
31 Nueva Imperial 10-05-2026 07:30 2,4 96,3 0 0,3 34 0,6 1013,3
30 Nueva Imperial 10-05-2026 07:15 2,3 96 0 0 74 0,6 1013,3
29 Nueva Imperial 10-05-2026 07:00 2,2 96,3 0 0 74 0,6 1013,4
28 Nueva Imperial 10-05-2026 06:45 2,2 96,9 0,2 0,3 81 0,6 1013,4
27 Nueva Imperial 10-05-2026 06:30 1,2 96,4 0 0,3 98 0,6 1013,5
26 Nueva Imperial 10-05-2026 06:15 1,1 96,1 0 0 218 0,6 1013,5
25 Nueva Imperial 10-05-2026 06:00 1,5 96,1 0 0 274 0,6 1013,5
24 Nueva Imperial 10-05-2026 05:45 1,4 96,1 0 0 277 0,6 1013,5
23 Nueva Imperial 10-05-2026 05:30 1 95,7 0 0 277 0,6 1013,5
22 Nueva Imperial 10-05-2026 05:15 1,3 95,9 0 0 277 0,6 1013,5
21 Nueva Imperial 10-05-2026 05:00 2 95,4 0 0 277 0,6 1013,6
20 Nueva Imperial 10-05-2026 04:45 2,2 95,7 0 0 277 0,6 1013,6
19 Nueva Imperial 10-05-2026 04:30 2,3 95,1 0 0 277 0,6 1013,6
18 Nueva Imperial 10-05-2026 04:15 2,3 95,3 0 0 277 0,6 1013,5
17 Nueva Imperial 10-05-2026 04:00 1,8 94,6 0 0 277 0,6 1013,6
16 Nueva Imperial 10-05-2026 03:45 2,3 93,9 0 0 277 0,6 1013,6
15 Nueva Imperial 10-05-2026 03:30 2,8 93,5 0 0 277 0,6 1013,6
14 Nueva Imperial 10-05-2026 03:15 2,9 93,7 0 0,3 277 0,6 1013,7
13 Nueva Imperial 10-05-2026 03:00 3 92,8 0 0,3 275 0,6 1013,7
12 Nueva Imperial 10-05-2026 02:45 3,1 93,6 0 0 268 0,6 1013,7
11 Nueva Imperial 10-05-2026 02:30 2,7 92,8 0 0 268 0,6 1013,9
10 Nueva Imperial 10-05-2026 02:15 3,6 92,8 0 0,3 268 0,6 1014
9 Nueva Imperial 10-05-2026 02:00 3,3 93,1 0 0 258 0,6 1014,3
8 Nueva Imperial 10-05-2026 01:45 3,3 92,8 0 0 254 0,6 1014,4
7 Nueva Imperial 10-05-2026 01:30 3,6 91,7 0 0 319 0,6 1014,4
6 Nueva Imperial 10-05-2026 01:15 4,4 90,7 0 0 49 0,6 1014,5
5 Nueva Imperial 10-05-2026 01:00 4,4 90,6 0,2 0 59 0,6 1014,7
4 Nueva Imperial 10-05-2026 00:45 4,6 88,8 0 0 59 0,6 1014,8
3 Nueva Imperial 10-05-2026 00:30 4,9 89,1 0 0 59 0,6 1014,9
2 Nueva Imperial 10-05-2026 00:15 5,4 87,7 0 0 59 0,6 1015
1 Nueva Imperial 10-05-2026 00:00 5,9 87,2 0 0 59 0,6 1014,9